PTLOP SWFN-SWMW

Flight info

Callsign PTLOP
Flight time 1h 18m
Altitude 7000
Route 030457S0600025W 030459S0595342W 030146S0594836W DCT 030533S0594437W DCT SIGEP
Aircraft C208/L-SDFGR/C

Departure

Time 2026-04-14 20:18
Airport Flores Airport (SWFN)

Arrival

Time 2026-04-14 21:36
Airport Maués Airport (SWMW)
Time Latitude Longitude Altitude Speed Heading
2026-04-14 20:16 -3.07236 -60.02516 219 ft 0 kts 95°
2026-04-14 20:16 -3.07237 -60.02502 214 ft 12 kts 95°
2026-04-14 20:16 -3.07273 -60.02260 214 ft 58 kts 99°
2026-04-14 20:17 -3.07357 -60.01734 231 ft 90 kts 96°
2026-04-14 20:17 -3.07450 -60.01090 396 ft 94 kts 96°
2026-04-14 20:17 -3.07548 -60.00397 529 ft 111 kts 95°
2026-04-14 20:17 -3.07608 -59.99578 701 ft 127 kts 90°
2026-04-14 20:18 -3.07612 -59.98669 901 ft 134 kts 90°
2026-04-14 20:18 -3.07648 -59.97724 1097 ft 138 kts 93°
2026-04-14 20:18 -3.07713 -59.96773 1285 ft 139 kts 94°
2026-04-14 20:18 -3.07796 -59.95785 1363 ft 147 kts 95°
2026-04-14 20:19 -3.07890 -59.94730 1378 ft 156 kts 95°
2026-04-14 20:19 -3.07998 -59.93626 1389 ft 162 kts 95°
2026-04-14 20:19 -3.08111 -59.92492 1399 ft 164 kts 95°
2026-04-14 20:19 -3.08220 -59.91349 1412 ft 167 kts 95°
2026-04-14 20:20 -3.08331 -59.90174 1405 ft 172 kts 95°
2026-04-14 20:20 -3.08321 -59.88979 1395 ft 174 kts 76°
2026-04-14 20:20 -3.07731 -59.87946 1496 ft 169 kts 50°
2026-04-14 20:20 -3.07006 -59.87066 1686 ft 161 kts 52°
2026-04-14 20:21 -3.06341 -59.86183 1844 ft 160 kts 53°
2026-04-14 20:21 -3.05658 -59.85271 1887 ft 167 kts 53°
2026-04-14 20:21 -3.04947 -59.84322 1886 ft 173 kts 53°
2026-04-14 20:21 -3.04215 -59.83355 1874 ft 175 kts 53°
2026-04-14 20:22 -3.03552 -59.82337 1891 ft 176 kts 66°
2026-04-14 20:22 -3.03282 -59.81147 1880 ft 176 kts 87°
2026-04-14 20:22 -3.03473 -59.79942 1874 ft 177 kts 109°
2026-04-14 20:22 -3.04111 -59.78921 1872 ft 177 kts 135°
2026-04-14 20:23 -3.05070 -59.78176 1873 ft 172 kts 136°
2026-04-14 20:23 -3.05900 -59.77333 1874 ft 169 kts 130°
2026-04-14 20:23 -3.06692 -59.76461 1872 ft 168 kts 131°
2026-04-14 20:23 -3.07496 -59.75616 1873 ft 167 kts 133°
2026-04-14 20:24 -3.08315 -59.74788 1877 ft 167 kts 133°
2026-04-14 20:24 -3.09139 -59.73970 1879 ft 167 kts 134°
2026-04-14 20:24 -3.09970 -59.73152 1879 ft 167 kts 133°
2026-04-14 20:24 -3.10799 -59.72339 1875 ft 167 kts 134°
2026-04-14 20:25 -3.11632 -59.71523 1876 ft 167 kts 134°
2026-04-14 20:25 -3.12466 -59.70705 1877 ft 167 kts 134°
2026-04-14 20:25 -3.13298 -59.69888 1876 ft 168 kts 134°
2026-04-14 20:25 -3.14124 -59.69080 1876 ft 169 kts 134°
2026-04-14 20:26 -3.14625 -59.68591 1874 ft 169 kts 134°
2026-04-14 20:26 -3.14746 -59.68474 1875 ft 169 kts 134°
2026-04-14 20:26 -3.15583 -59.67651 1873 ft 169 kts 133°
2026-04-14 20:26 -3.16420 -59.66827 1872 ft 168 kts 134°
2026-04-14 20:27 -3.17258 -59.66009 1871 ft 168 kts 134°
2026-04-14 20:27 -3.18093 -59.65198 1867 ft 167 kts 134°
2026-04-14 20:27 -3.18903 -59.64365 1865 ft 166 kts 126°
2026-04-14 20:27 -3.19316 -59.63304 1866 ft 165 kts 97°
2026-04-14 20:28 -3.19468 -59.62205 2044 ft 153 kts 97°
2026-04-14 20:28 -3.19614 -59.61180 2285 ft 145 kts 96°
2026-04-14 20:28 -3.19754 -59.60210 2526 ft 140 kts 95°
2026-04-14 20:28 -3.19890 -59.59255 2737 ft 139 kts 96°
2026-04-14 20:29 -3.20031 -59.58301 2930 ft 139 kts 97°
2026-04-14 20:29 -3.20172 -59.57349 3127 ft 138 kts 96°
2026-04-14 20:29 -3.20266 -59.56717 3257 ft 138 kts 97°
2026-04-14 20:29 -3.20457 -59.55444 3513 ft 138 kts 96°
2026-04-14 20:30 -3.20552 -59.54814 3640 ft 138 kts 96°
2026-04-14 20:30 -3.20744 -59.53546 3900 ft 138 kts 96°
2026-04-14 20:30 -3.20834 -59.52919 4021 ft 137 kts 96°
2026-04-14 20:30 -3.20967 -59.51977 4215 ft 136 kts 95°
2026-04-14 20:31 -3.21099 -59.51042 4411 ft 135 kts 97°
2026-04-14 20:31 -3.21196 -59.50379 4549 ft 135 kts 97°
2026-04-14 20:31 -3.21209 -59.50290 4568 ft 135 kts 96°
2026-04-14 20:31 -3.21342 -59.49367 4765 ft 134 kts 96°
2026-04-14 20:32 -3.21472 -59.48447 4952 ft 133 kts 96°
2026-04-14 20:32 -3.21606 -59.47543 5150 ft 133 kts 96°
2026-04-14 20:32 -3.21745 -59.46630 5343 ft 133 kts 97°
2026-04-14 20:32 -3.21885 -59.45716 5540 ft 133 kts 97°
2026-04-14 20:33 -3.22026 -59.44801 5739 ft 133 kts 97°
2026-04-14 20:33 -3.22166 -59.43883 5936 ft 133 kts 97°
2026-04-14 20:33 -3.22306 -59.42965 6133 ft 133 kts 97°
2026-04-14 20:34 -3.22581 -59.41137 6501 ft 133 kts 97°
2026-04-14 20:34 -3.22717 -59.40224 6686 ft 133 kts 97°
2026-04-14 20:34 -3.22853 -59.39313 6867 ft 132 kts 97°
2026-04-14 20:34 -3.22990 -59.38407 7050 ft 131 kts 97°
2026-04-14 20:35 -3.23125 -59.37505 7239 ft 130 kts 97°
2026-04-14 20:35 -3.23259 -59.36611 7433 ft 130 kts 97°
2026-04-14 20:35 -3.23393 -59.35720 7624 ft 129 kts 97°
2026-04-14 20:35 -3.23526 -59.34832 7816 ft 129 kts 97°
2026-04-14 20:36 -3.23658 -59.33946 8015 ft 129 kts 97°
2026-04-14 20:36 -3.23789 -59.33074 8203 ft 128 kts 97°
2026-04-14 20:36 -3.23921 -59.32195 8403 ft 128 kts 97°
2026-04-14 20:36 -3.24053 -59.31319 8591 ft 127 kts 97°
2026-04-14 20:37 -3.24183 -59.30446 8785 ft 126 kts 97°
2026-04-14 20:37 -3.24314 -59.29578 8984 ft 126 kts 97°
2026-04-14 20:37 -3.24443 -59.28717 9182 ft 125 kts 97°
2026-04-14 20:37 -3.24572 -59.27864 9384 ft 124 kts 97°
2026-04-14 20:38 -3.24699 -59.27016 9586 ft 123 kts 97°
2026-04-14 20:38 -3.24825 -59.26178 9777 ft 121 kts 97°
2026-04-14 20:38 -3.24949 -59.25347 9958 ft 120 kts 97°
2026-04-14 20:38 -3.25071 -59.24524 10139 ft 119 kts 97°
2026-04-14 20:39 -3.25192 -59.23715 10319 ft 117 kts 97°
2026-04-14 20:39 -3.25311 -59.22915 10508 ft 116 kts 97°
2026-04-14 20:39 -3.25430 -59.22122 10701 ft 115 kts 97°
2026-04-14 20:39 -3.25546 -59.21337 10887 ft 113 kts 97°
2026-04-14 20:40 -3.25666 -59.20522 10944 ft 124 kts 97°
2026-04-14 20:40 -3.25799 -59.19636 10964 ft 137 kts 97°
2026-04-14 20:40 -3.25949 -59.18658 10969 ft 147 kts 98°
2026-04-14 20:40 -3.26110 -59.17612 10966 ft 156 kts 98°
2026-04-14 20:41 -3.26278 -59.16520 10964 ft 162 kts 98°
2026-04-14 20:41 -3.26449 -59.15394 10959 ft 165 kts 98°
2026-04-14 20:41 -3.26624 -59.14242 10957 ft 168 kts 98°
2026-04-14 20:41 -3.26799 -59.13081 10957 ft 169 kts 98°
2026-04-14 20:42 -3.26975 -59.11910 10958 ft 170 kts 98°
2026-04-14 20:42 -3.27152 -59.10734 10959 ft 171 kts 98°
2026-04-14 20:42 -3.27503 -59.08384 10961 ft 172 kts 98°
2026-04-14 20:43 -3.27681 -59.07199 10963 ft 172 kts 98°
2026-04-14 20:43 -3.27858 -59.06012 10958 ft 172 kts 98°
2026-04-14 20:43 -3.28036 -59.04825 10961 ft 173 kts 98°
2026-04-14 20:43 -3.28214 -59.03633 10967 ft 173 kts 98°
2026-04-14 20:44 -3.28387 -59.02442 10957 ft 173 kts 96°
2026-04-14 20:44 -3.28499 -59.01244 10958 ft 173 kts 94°
2026-04-14 20:44 -3.28571 -59.00046 10959 ft 172 kts 92°
2026-04-14 20:44 -3.28635 -58.98846 10960 ft 172 kts 92°
2026-04-14 20:45 -3.28700 -58.97649 10962 ft 172 kts 93°
2026-04-14 20:45 -3.28770 -58.96455 10962 ft 172 kts 93°
2026-04-14 20:45 -3.28844 -58.95257 10961 ft 172 kts 93°
2026-04-14 20:45 -3.28921 -58.94077 10962 ft 172 kts 93°
2026-04-14 20:46 -3.29000 -58.92881 10961 ft 172 kts 93°
2026-04-14 20:46 -3.29081 -58.91683 10961 ft 172 kts 93°
2026-04-14 20:46 -3.29162 -58.90488 10961 ft 172 kts 93°
2026-04-14 20:46 -3.29243 -58.89292 10961 ft 172 kts 93°
2026-04-14 20:47 -3.29325 -58.88094 10965 ft 172 kts 93°
2026-04-14 20:47 -3.29406 -58.86899 10965 ft 172 kts 93°
2026-04-14 20:47 -3.29488 -58.85702 10964 ft 172 kts 93°
2026-04-14 20:47 -3.29569 -58.84519 10964 ft 172 kts 93°
2026-04-14 20:48 -3.29651 -58.83322 10959 ft 172 kts 93°
2026-04-14 20:48 -3.29732 -58.82127 10961 ft 172 kts 93°
2026-04-14 20:48 -3.29814 -58.80930 10961 ft 172 kts 94°
2026-04-14 20:48 -3.29896 -58.79734 10961 ft 172 kts 93°
2026-04-14 20:49 -3.29977 -58.78539 10961 ft 172 kts 93°
2026-04-14 20:49 -3.30058 -58.77341 10961 ft 172 kts 93°
2026-04-14 20:49 -3.30140 -58.76142 10961 ft 172 kts 93°
2026-04-14 20:49 -3.30221 -58.74947 10961 ft 172 kts 93°
2026-04-14 20:50 -3.30302 -58.73766 10961 ft 172 kts 93°
2026-04-14 20:50 -3.30383 -58.72569 10961 ft 172 kts 93°
2026-04-14 20:50 -3.30464 -58.71374 10962 ft 172 kts 93°
2026-04-14 20:50 -3.30545 -58.70180 10965 ft 172 kts 93°
2026-04-14 20:51 -3.30627 -58.68985 10962 ft 172 kts 94°
2026-04-14 20:51 -3.30708 -58.67789 10962 ft 172 kts 93°
2026-04-14 20:51 -3.30790 -58.66594 10964 ft 172 kts 93°
2026-04-14 20:51 -3.30871 -58.65398 10961 ft 172 kts 93°
2026-04-14 20:52 -3.30953 -58.64202 10959 ft 172 kts 93°
2026-04-14 20:52 -3.31034 -58.63005 10960 ft 172 kts 93°
2026-04-14 20:52 -3.31115 -58.61810 10959 ft 172 kts 93°
2026-04-14 20:52 -3.31197 -58.60618 10958 ft 172 kts 93°
2026-04-14 20:53 -3.31279 -58.59419 10959 ft 172 kts 93°
2026-04-14 20:53 -3.31359 -58.58225 10958 ft 172 kts 93°
2026-04-14 20:53 -3.31440 -58.57029 10958 ft 172 kts 93°
2026-04-14 20:53 -3.31617 -58.55864 10956 ft 172 kts 109°
2026-04-14 20:54 -3.32102 -58.54767 10964 ft 172 kts 107°
2026-04-14 20:54 -3.32341 -58.53600 10961 ft 171 kts 97°
2026-04-14 20:54 -3.32476 -58.52414 10965 ft 171 kts 95°
2026-04-14 20:54 -3.32589 -58.51225 10964 ft 172 kts 95°
2026-04-14 20:55 -3.32707 -58.50036 10961 ft 172 kts 95°
2026-04-14 20:55 -3.32835 -58.48848 10964 ft 172 kts 96°
2026-04-14 20:55 -3.32972 -58.47660 10960 ft 172 kts 96°
2026-04-14 20:55 -3.33116 -58.46470 10961 ft 172 kts 96°
2026-04-14 20:56 -3.33265 -58.45280 10958 ft 172 kts 97°
2026-04-14 20:56 -3.33416 -58.44089 10959 ft 173 kts 97°
2026-04-14 20:56 -3.33569 -58.42897 10962 ft 173 kts 97°
2026-04-14 20:56 -3.33722 -58.41702 10958 ft 173 kts 97°
2026-04-14 20:57 -3.33873 -58.40523 10959 ft 173 kts 97°
2026-04-14 20:57 -3.34027 -58.39327 10958 ft 173 kts 97°
2026-04-14 20:57 -3.34182 -58.38126 10959 ft 173 kts 97°
2026-04-14 20:57 -3.34335 -58.36931 10959 ft 173 kts 97°
2026-04-14 20:58 -3.34488 -58.35749 10966 ft 173 kts 97°
2026-04-14 20:58 -3.34644 -58.34535 10965 ft 174 kts 97°
2026-04-14 20:58 -3.34797 -58.33351 10967 ft 174 kts 97°
2026-04-14 20:58 -3.34952 -58.32150 10966 ft 174 kts 97°
2026-04-14 20:59 -3.35106 -58.30948 10964 ft 174 kts 97°
2026-04-14 20:59 -3.35260 -58.29745 10964 ft 174 kts 97°
2026-04-14 20:59 -3.35415 -58.28543 10961 ft 174 kts 97°
2026-04-14 20:59 -3.35568 -58.27346 10967 ft 174 kts 97°
2026-04-14 21:00 -3.35723 -58.26143 10966 ft 174 kts 97°
2026-04-14 21:00 -3.35878 -58.24941 10964 ft 174 kts 97°
2026-04-14 21:00 -3.36027 -58.23812 10942 ft 149 kts 97°
2026-04-14 21:00 -3.36164 -58.22845 10784 ft 137 kts 97°
2026-04-14 21:01 -3.36291 -58.21918 10554 ft 132 kts 97°
2026-04-14 21:01 -3.36410 -58.21021 10349 ft 129 kts 97°
2026-04-14 21:01 -3.36524 -58.20140 10144 ft 126 kts 97°
2026-04-14 21:01 -3.36635 -58.19277 9941 ft 124 kts 97°
2026-04-14 21:02 -3.36742 -58.18440 9765 ft 122 kts 97°
2026-04-14 21:02 -3.36850 -58.17594 9583 ft 121 kts 97°
2026-04-14 21:02 -3.36956 -58.16776 9385 ft 120 kts 97°
2026-04-14 21:02 -3.37061 -58.15952 9182 ft 119 kts 97°
2026-04-14 21:03 -3.37164 -58.15098 9002 ft 130 kts 96°
2026-04-14 21:03 -3.37276 -58.14170 8820 ft 138 kts 97°
2026-04-14 21:03 -3.37401 -58.13190 8627 ft 144 kts 97°
2026-04-14 21:03 -3.37532 -58.12175 8427 ft 148 kts 97°
2026-04-14 21:04 -3.37665 -58.11145 8226 ft 150 kts 97°
2026-04-14 21:04 -3.37799 -58.10102 8029 ft 152 kts 97°
2026-04-14 21:04 -3.37934 -58.09052 7829 ft 152 kts 97°
2026-04-14 21:04 -3.38069 -58.07998 7633 ft 153 kts 97°
2026-04-14 21:05 -3.38202 -58.06956 7446 ft 153 kts 97°
2026-04-14 21:05 -3.38337 -58.05901 7254 ft 153 kts 97°
2026-04-14 21:05 -3.38472 -58.04846 7066 ft 153 kts 97°
2026-04-14 21:05 -3.38607 -58.03791 6876 ft 153 kts 97°
2026-04-14 21:06 -3.38742 -58.02734 6688 ft 152 kts 97°
2026-04-14 21:06 -3.38877 -58.01683 6502 ft 152 kts 97°
2026-04-14 21:06 -3.39012 -58.00633 6320 ft 152 kts 97°
2026-04-14 21:06 -3.39183 -57.99588 6127 ft 153 kts 109°
2026-04-14 21:07 -3.39766 -57.98701 5933 ft 153 kts 126°
2026-04-14 21:07 -3.40433 -57.97867 5742 ft 154 kts 128°
2026-04-14 21:07 -3.41124 -57.97050 5544 ft 154 kts 128°
2026-04-14 21:07 -3.41764 -57.96208 5357 ft 154 kts 125°
2026-04-14 21:08 -3.42389 -57.95340 5161 ft 153 kts 124°
2026-04-14 21:08 -3.43006 -57.94469 4968 ft 153 kts 124°
2026-04-14 21:08 -3.43618 -57.93592 4779 ft 154 kts 124°
2026-04-14 21:08 -3.44228 -57.92715 4586 ft 154 kts 124°
2026-04-14 21:09 -3.44841 -57.91833 4388 ft 153 kts 123°
2026-04-14 21:09 -3.45453 -57.90955 4190 ft 153 kts 124°
2026-04-14 21:09 -3.46061 -57.90079 4000 ft 153 kts 123°
2026-04-14 21:09 -3.46661 -57.89212 3801 ft 153 kts 123°
2026-04-14 21:10 -3.47249 -57.88329 3607 ft 152 kts 120°
2026-04-14 21:10 -3.47783 -57.87415 3414 ft 152 kts 118°
2026-04-14 21:10 -3.48301 -57.86490 3221 ft 152 kts 118°
2026-04-14 21:10 -3.48806 -57.85559 3026 ft 152 kts 116°
2026-04-14 21:11 -3.49248 -57.84599 2829 ft 152 kts 113°
2026-04-14 21:11 -3.49637 -57.83616 2643 ft 152 kts 107°
2026-04-14 21:11 -3.49933 -57.82600 2446 ft 153 kts 105°
2026-04-14 21:11 -3.50205 -57.81575 2255 ft 153 kts 104°
2026-04-14 21:12 -3.50466 -57.80546 2103 ft 151 kts 104°
2026-04-14 21:12 -3.50682 -57.79541 2031 ft 145 kts 97°
2026-04-14 21:12 -3.50650 -57.78555 1997 ft 140 kts 79°
2026-04-14 21:12 -3.50447 -57.77616 1980 ft 136 kts 76°
2026-04-14 21:13 -3.50409 -57.77457 1981 ft 136 kts 76°
2026-04-14 21:31 -3.50243 -57.76813 1993 ft 130 kts 75°
2026-04-14 21:31 -3.50064 -57.75948 1903 ft 126 kts 91°
2026-04-14 21:32 -3.50263 -57.75091 1808 ft 125 kts 106°
2026-04-14 21:32 -3.50489 -57.74253 1658 ft 125 kts 102°
2026-04-14 21:32 -3.50628 -57.73397 1517 ft 127 kts 94°
2026-04-14 21:32 -3.50558 -57.72530 1388 ft 124 kts 73°
2026-04-14 21:33 -3.50235 -57.71807 1366 ft 106 kts 61°
2026-04-14 21:33 -3.49832 -57.71180 1226 ft 111 kts 54°
2026-04-14 21:33 -3.49339 -57.70582 1131 ft 109 kts 47°
2026-04-14 21:33 -3.48782 -57.70052 1024 ft 106 kts 40°
2026-04-14 21:34 -3.48205 -57.69691 1001 ft 99 kts 13°
2026-04-14 21:34 -3.47469 -57.69754 719 ft 114 kts 345°
2026-04-14 21:34 -3.46737 -57.69977 472 ft 105 kts 341°
2026-04-14 21:34 -3.46080 -57.70206 352 ft 98 kts 341°
2026-04-14 21:35 -3.45451 -57.70436 268 ft 94 kts 337°
2026-04-14 21:35 -3.44848 -57.70711 154 ft 95 kts 333°
2026-04-14 21:35 -3.44292 -57.70980 101 ft 78 kts 334°
2026-04-14 21:35 -3.43824 -57.71206 40 ft 68 kts 333°
2026-04-14 21:36 -3.43473 -57.71394 40 ft 48 kts 329°
2026-04-14 21:36 -3.43304 -57.71489 39 ft 11 kts 337°
2026-04-14 21:36 -3.43291 -57.71495 38 ft 2 kts
2026-04-14 21:36 -3.43239 -57.71497 39 ft 14 kts 353°
2026-04-14 21:37 -3.43104 -57.71521 39 ft 29 kts 346°
2026-04-14 21:37 -3.42873 -57.71583 39 ft 32 kts 346°
2026-04-14 21:37 -3.42708 -57.71626 39 ft 20 kts 344°
2026-04-14 21:37 -3.42568 -57.71668 39 ft 24 kts 342°
2026-04-14 21:38 -3.42367 -57.71708 40 ft 34 kts 346°
2026-04-14 21:38 -3.42210 -57.71745 39 ft 11 kts 349°
2026-04-14 21:38 -3.42171 -57.71752 39 ft 6 kts 348°
2026-04-14 21:38 -3.42041 -57.71785 40 ft 33 kts 347°
2026-04-14 21:39 -3.41783 -57.71851 39 ft 32 kts 346°
2026-04-14 21:39 -3.41598 -57.71898 39 ft 29 kts 346°
2026-04-14 21:39 -3.41374 -57.71959 40 ft 36 kts 342°
2026-04-14 21:39 -3.41120 -57.72046 39 ft 33 kts 347°
2026-04-14 21:40 -3.40943 -57.72075 39 ft 22 kts 351°
2026-04-14 21:40 -3.40827 -57.72095 39 ft 20 kts 351°
2026-04-14 21:40 -3.40648 -57.72110 39 ft 30 kts
2026-04-14 21:40 -3.40416 -57.72101 40 ft 38 kts
2026-04-14 21:41 -3.40268 -57.72087 38 ft 11 kts
2026-04-14 21:41 -3.40162 -57.72079 39 ft 24 kts 359°
2026-04-14 21:41 -3.40052 -57.72092 42 ft 5 kts 331°
2026-04-14 21:41 -3.40031 -57.72132 41 ft 8 kts 293°
2026-04-14 21:42 -3.39992 -57.72157 43 ft 9 kts
2026-04-14 21:42 -3.39956 -57.72116 50 ft 11 kts 74°
2026-04-14 21:42 -3.39984 -57.72057 60 ft 11 kts 155°
2026-04-14 21:42 -3.40004 -57.72053 60 ft 0 kts 179°